This demonstration page uses our WeatherBlox Daily Observations layout. Learn more.

Left ArrowRight Arrow

Hourly Observations for February 7, 2018

Temp ( °F °C ) Dew Point ( °F °C ) Humidity (%) Winds ( mph kmh ) Pressure ( in mb ) Visibility ( mi km ) Precip ( " mm )
12:54 am 00:54 Mostly Clear 1 -17.2 -3 -19.4 83 83 SW 5 7 30.44 1031 8 13 0.00 0.00
1:31 am 01:31 Mostly Cloudy 1 -17.2 -3 -19.4 83 83 Calm 30.50 1033 8 13 0.00 0.00
1:47 am 01:47 Cloudy with Mist and Fog -1 -18.3 -4 -20 87 87 Calm 30.50 1033 5 8 0.00 0.00
1:54 am 01:54 Cloudy -1 -18.3 -5 -20.6 82 82 Calm 30.45 1031 10 16 0.00 0.00
2:54 am 02:54 Clear 2 -16.7 -2 -18.9 83 83 S 5 7 30.45 1031 7 11 0.00 0.00
3:54 am 03:54 Partly Cloudy with Mist and Fog 1 -17.2 -3 -19.4 83 83 Calm 30.45 1031 4 6 0.00 0.00
4:54 am 04:54 Mostly Clear -1 -18.3 -6 -21.1 79 79 Calm 30.48 1032 8 13 0.00 0.00
5:54 am 05:54 Clear -2 -18.9 -5 -20.6 87 87 SSE 3 6 30.51 1033 8 13 0.00 0.00
6:54 am 06:54 Clear -4 -20 -7 -21.7 86 86 Calm 30.54 1034 7 11 0.00 0.00
7:54 am 07:54 Sunny 1 -17.2 -2 -18.9 87 87 Calm 30.56 1035 7 11 0.00 0.00
8:54 am 08:54 Sunny 8 -13.3 3 -16.1 80 80 Calm 30.57 1035 8 13 0.00 0.00
9:54 am 09:54 Sunny 13 -10.6 6 -14.4 74 74 N 12 19 30.58 1036 10 16 0.00 0.00
10:54 am 10:54 Sunny 15 -9.4 5 -15 64 64 NNW 9 15 30.59 1036 10 16 0.00 0.00
11:54 am 11:54 Mostly Cloudy 16 -8.9 6 -14.4 65 65 N 7 11 30.58 1036 10 16 0.00 0.00
12:54 pm 12:54 Mostly Cloudy 17 -8.3 6 -14.4 62 62 N 6 9 30.55 1035 10 16 0.00 0.00
1:54 pm 13:54 Mostly Cloudy with Light Snow 20 -6.7 6 -14.4 55 55 N 5 7 30.53 1034 10 16 0.00 0.03
2:54 pm 14:54 Cloudy 19 -7.2 5 -15 54 54 Calm 30.51 1033 10 16 0.00 0.03
3:54 pm 15:54 Cloudy 19 -7.2 7 -13.9 59 59 ESE 3 6 30.50 1033 10 16 0.00 0.00
4:54 pm 16:54 Mostly Cloudy 19 -7.2 7 -13.9 59 59 Calm 30.47 1032 10 16 0.00 0.00
5:54 pm 17:54 Clear 18 -7.8 9 -12.8 68 68 SSW 6 9 30.47 1032 10 16 0.00 0.00
6:54 pm 18:54 Mostly Cloudy 19 -7.2 10 -12.2 68 68 S 10 17 30.48 1032 10 16 0.00 0.00
7:54 pm 19:54 Mostly Cloudy 18 -7.8 9 -12.8 68 68 S 7 11 30.47 1032 10 16 0.00 0.00
8:54 pm 20:54 Mostly Cloudy 17 -8.3 9 -12.8 70 70 E 3 6 30.48 1032 10 16 0.00 0.00
9:54 pm 21:54 Mostly Clear 13 -10.6 7 -13.9 77 77 S 7 11 30.46 1031 10 16 0.00 0.00
10:54 pm 22:54 Clear 11 -11.7 6 -14.4 81 81 SSE 6 9 30.44 1031 10 16 0.00 0.00
11:54 pm 23:54 Clear 15 -9.4 9 -12.8 77 77 S 7 11 30.42 1030 10 16 0.00 0.00

Powered by AerisWeather